• en France
  • Liste des pays
  • À 7 jours
  • Température de l'eau
  • Carte satellitaire
  • Carte météo
  • Widgets météo
  • user-avatar
    Se connecter

    Météo par heure à Makoua

    Ce jour, 22 Octobre, Lundi

    Heure Température Précipitation Vent Pression Humidité
    00:00 +27°C° 0 mm 1 m/s 724 mmHg 68%
    01:00 +27°C° 0 mm 1 m/s 724 mmHg 72%
    02:00 +26°C° 0 mm 1 m/s 724 mmHg 74%
    03:00 +26°C° 0 mm 1 m/s 724 mmHg 76%
    04:00 +26°C° 0 mm 1 m/s 724 mmHg 78%
    05:00 +26°C° 0.7 mm 1 m/s 725 mmHg 81%
    06:00 +24°C° 0.7 mm 0 m/s 725 mmHg 84%
    07:00 +24°C° 0.7 mm 0 m/s 725 mmHg 86%
    08:00 +28°C° 0.5 mm 1 m/s 725 mmHg 80%
    09:00 +30°C° 0.5 mm 1 m/s 725 mmHg 74%
    10:00 +31°C° 0.5 mm 1 m/s 725 mmHg 67%
    11:00 +32°C° 0.8 mm 1 m/s 725 mmHg 65%
    12:00 +32°C° 0.8 mm 1 m/s 724 mmHg 62%
    13:00 +33°C° 0.8 mm 1 m/s 724 mmHg 60%
    14:00 +33°C° 0.2 mm 1 m/s 723 mmHg 59%
    15:00 +33°C° 0.2 mm 1 m/s 723 mmHg 59%
    16:00 +31°C° 0.2 mm 0 m/s 723 mmHg 59%
    17:00 +29°C° 0 mm 0 m/s 723 mmHg 64%
    18:00 +29°C° 0 mm 1 m/s 723 mmHg 70%
    19:00 +28°C° 0 mm 1 m/s 724 mmHg 76%
    20:00 +27°C° 0 mm 1 m/s 724 mmHg 77%
    21:00 +27°C° 0 mm 1 m/s 725 mmHg 79%
    22:00 +27°C° 0 mm 1 m/s 725 mmHg 81%
    23:00 +26°C° 0.2 mm 1 m/s 725 mmHg 84%

    Demain, 23 Octobre, Mardi

    Heure Température Précipitation Vent Pression Humidité
    00:00 +25°C° 0.2 mm 1 m/s 725 mmHg 87%
    01:00 +25°C° 0.2 mm 1 m/s 725 mmHg 90%
    02:00 +25°C° 0.7 mm 1 m/s 725 mmHg 93%
    03:00 +24°C° 0.7 mm 1 m/s 725 mmHg 95%
    04:00 +24°C° 0.7 mm 1 m/s 725 mmHg 98%
    05:00 +22°C° 1.1 mm 0 m/s 725 mmHg 97%
    06:00 +23°C° 1.1 mm 0 m/s 726 mmHg 96%
    07:00 +23°C° 1.1 mm 0 m/s 727 mmHg 96%
    08:00 +24°C° 1.6 mm 0 m/s 727 mmHg 93%
    09:00 +25°C° 1.6 mm 0 m/s 727 mmHg 91%
    10:00 +26°C° 1.6 mm 0 m/s 728 mmHg 89%
    11:00 +28°C° 0.3 mm 1 m/s 727 mmHg 83%
    12:00 +29°C° 0.3 mm 1 m/s 726 mmHg 77%
    13:00 +30°C° 0.3 mm 1 m/s 725 mmHg 71%
    14:00 +30°C° 0 mm 1 m/s 725 mmHg 67%
    15:00 +31°C° 0 mm 1 m/s 725 mmHg 62%
    16:00 +30°C° 0 mm 0 m/s 724 mmHg 58%
    17:00 +28°C° 0 mm 0 m/s 725 mmHg 65%
    18:00 +28°C° 0 mm 1 m/s 725 mmHg 72%
    19:00 +27°C° 0 mm 1 m/s 726 mmHg 79%
    20:00 +26°C° 0.1 mm 1 m/s 726 mmHg 83%
    21:00 +26°C° 0.1 mm 1 m/s 727 mmHg 86%
    22:00 +25°C° 0.1 mm 1 m/s 727 mmHg 89%
    23:00 +25°C° 0.2 mm 1 m/s 727 mmHg 91%

    Après-demain, 24 Octobre, Mercredi

    Heure Température Précipitation Vent Pression Humidité
    00:00 +25°C° 0.2 mm 1 m/s 727 mmHg 92%
    01:00 +24°C° 0.2 mm 1 m/s 726 mmHg 94%
    02:00 +24°C° 0 mm 1 m/s 726 mmHg 94%
    03:00 +24°C° 0 mm 1 m/s 726 mmHg 94%
    04:00 +24°C° 0 mm 1 m/s 725 mmHg 94%
    05:00 +24°C° 0 mm 1 m/s 726 mmHg 92%
    06:00 +25°C° 0 mm 1 m/s 727 mmHg 90%
    07:00 +25°C° 0 mm 1 m/s 727 mmHg 88%
    08:00 +27°C° 0.2 mm 1 m/s 728 mmHg 78%
    09:00 +29°C° 0.2 mm 1 m/s 728 mmHg 69%
    10:00 +31°C° 0.2 mm 1 m/s 728 mmHg 59%
    11:00 +31°C° 0.7 mm 1 m/s 728 mmHg 62%
    12:00 +31°C° 0.7 mm 1 m/s 727 mmHg 65%
    13:00 +31°C° 0.7 mm 1 m/s 726 mmHg 68%
    14:00 +30°C° 1.7 mm 1 m/s 725 mmHg 74%
    15:00 +29°C° 1.7 mm 1 m/s 725 mmHg 80%
    16:00 +27°C° 1.7 mm 0 m/s 724 mmHg 86%
    17:00 +25°C° 1 mm 0 m/s 725 mmHg 88%
    18:00 +24°C° 1 mm 0 m/s 726 mmHg 91%
    19:00 +23°C° 1 mm 0 m/s 726 mmHg 94%
    20:00 +22°C° 0 mm 0 m/s 726 mmHg 95%
    21:00 +24°C° 0 mm 1 m/s 726 mmHg 95%
    22:00 +24°C° 0 mm 1 m/s 726 mmHg 96%
    23:00 +24°C° 0 mm 1 m/s 726 mmHg 96%

    25 Octobre, Jeudi

    Heure Température Précipitation Vent Pression Humidité
    00:00 +23°C° 0 mm 1 m/s 726 mmHg 96%
    01:00 +23°C° 0 mm 1 m/s 725 mmHg 97%
    02:00 +23°C° 0 mm 1 m/s 725 mmHg 97%
    03:00 +21°C° 0 mm 0 m/s 725 mmHg 97%
    04:00 +21°C° 0 mm 0 m/s 725 mmHg 97%
    05:00 +21°C° 0 mm 0 m/s 725 mmHg 96%
    06:00 +22°C° 0 mm 0 m/s 726 mmHg 94%
    07:00 +22°C° 0 mm 0 m/s 727 mmHg 93%
    08:00 +25°C° 0 mm 0 m/s 727 mmHg 79%
    09:00 +30°C° 0 mm 1 m/s 727 mmHg 65%
    10:00 +34°C° 0 mm 1 m/s 728 mmHg 50%
    11:00 +35°C° 0 mm 1 m/s 727 mmHg 46%
    12:00 +35°C° 0 mm 1 m/s 726 mmHg 42%
    13:00 +36°C° 0 mm 1 m/s 726 mmHg 37%
    14:00 +36°C° 0 mm 1 m/s 725 mmHg 40%
    15:00 +35°C° 0 mm 1 m/s 724 mmHg 43%
    16:00 +34°C° 0 mm 1 m/s 724 mmHg 46%
    17:00 +31°C° 0 mm 1 m/s 724 mmHg 55%
    18:00 +29°C° 0 mm 1 m/s 725 mmHg 64%
    19:00 +25°C° 0 mm 0 m/s 725 mmHg 73%
    20:00 +26°C° 0.1 mm 1 m/s 725 mmHg 76%
    21:00 +26°C° 0.1 mm 1 m/s 726 mmHg 79%
    22:00 +26°C° 0.1 mm 1 m/s 726 mmHg 82%
    23:00 +25°C° 0 mm 1 m/s 725 mmHg 84%

    26 Octobre, Vendredi

    Heure Température Précipitation Vent Pression Humidité
    00:00 +25°C° 0 mm 1 m/s 725 mmHg 86%
    01:00 +24°C° 0 mm 1 m/s 725 mmHg 88%
    02:00 +24°C° 0 mm 1 m/s 724 mmHg 88%
    03:00 +24°C° 0 mm 1 m/s 724 mmHg 89%
    04:00 +24°C° 0 mm 1 m/s 724 mmHg 89%
    05:00 +22°C° 0 mm 0 m/s 725 mmHg 87%
    06:00 +23°C° 0 mm 0 m/s 726 mmHg 84%
    07:00 +24°C° 0 mm 0 m/s 726 mmHg 82%
    08:00 +26°C° 0.2 mm 0 m/s 727 mmHg 75%
    09:00 +29°C° 0.2 mm 0 m/s 727 mmHg 68%
    10:00 +31°C° 0.2 mm 0 m/s 727 mmHg 61%
    11:00 +31°C° 1.1 mm 0 m/s 726 mmHg 60%
    12:00 +32°C° 1.1 mm 0 m/s 726 mmHg 59%
    13:00 +32°C° 1.1 mm 0 m/s 725 mmHg 57%
    14:00 +31°C° 0.2 mm 0 m/s 725 mmHg 57%
    15:00 +31°C° 0.2 mm 0 m/s 725 mmHg 57%
    16:00 +33°C° 0.2 mm 1 m/s 724 mmHg 56%
    17:00 +29°C° 0 mm 0 m/s 725 mmHg 63%
    18:00 +27°C° 0 mm 0 m/s 725 mmHg 70%
    19:00 +26°C° 0 mm 0 m/s 726 mmHg 77%
    20:00 +27°C° 0 mm 1 m/s 725 mmHg 80%
    21:00 +27°C° 0 mm 1 m/s 725 mmHg 83%
    22:00 +26°C° 0 mm 1 m/s 725 mmHg 86%
    23:00 +26°C° 0.1 mm 1 m/s 725 mmHg 86%

    27 Octobre, Samedi

    Heure Température Précipitation Vent Pression Humidité
    00:00 +26°C° 0.1 mm 1 m/s 725 mmHg 87%
    01:00 +25°C° 0.1 mm 1 m/s 725 mmHg 88%
    02:00 +25°C° 0.5 mm 1 m/s 725 mmHg 90%
    03:00 +25°C° 0.5 mm 1 m/s 725 mmHg 91%
    04:00 +22°C° 0.5 mm 0 m/s 725 mmHg 93%
    05:00 +25°C° 0.7 mm 1 m/s 725 mmHg 93%
    06:00 +25°C° 0.7 mm 1 m/s 726 mmHg 94%
    07:00 +25°C° 0.7 mm 1 m/s 727 mmHg 94%
    08:00 +25°C° 1.3 mm 0 m/s 727 mmHg 90%
    09:00 +26°C° 1.3 mm 0 m/s 727 mmHg 86%
    10:00 +28°C° 1.3 mm 0 m/s 727 mmHg 82%
    11:00 +30°C° 1.9 mm 1 m/s 726 mmHg 82%
    12:00 +30°C° 1.9 mm 1 m/s 726 mmHg 81%
    13:00 +30°C° 1.9 mm 1 m/s 725 mmHg 81%
    14:00 +29°C° 0.3 mm 1 m/s 725 mmHg 83%
    15:00 +27°C° 0.3 mm 0 m/s 725 mmHg 85%
    16:00 +26°C° 0.3 mm 0 m/s 725 mmHg 87%
    17:00 +25°C° 0 mm 0 m/s 725 mmHg 89%
    18:00 +24°C° 0 mm 0 m/s 725 mmHg 91%
    19:00 +23°C° 0 mm 0 m/s 726 mmHg 93%
    20:00 +23°C° 0 mm 0 m/s 726 mmHg 94%
    21:00 +25°C° 0 mm 1 m/s 726 mmHg 94%
    22:00 +25°C° 0 mm 1 m/s 726 mmHg 95%
    23:00 +25°C° 0 mm 1 m/s 725 mmHg 95%

    28 Octobre, Dimanche

    Heure Température Précipitation Vent Pression Humidité
    00:00 +24°C° 0 mm 1 m/s 725 mmHg 95%
    01:00 +24°C° 0 mm 1 m/s 725 mmHg 95%
    02:00 +24°C° 0 mm 1 m/s 725 mmHg 95%
    03:00 +24°C° 0 mm 1 m/s 725 mmHg 95%
    04:00 +24°C° 0 mm 1 m/s 725 mmHg 95%
    05:00 +24°C° 0.2 mm 1 m/s 726 mmHg 94%
    06:00 +25°C° 0.2 mm 1 m/s 726 mmHg 93%
    07:00 +25°C° 0.2 mm 1 m/s 727 mmHg 93%
    08:00 +28°C° 0 mm 1 m/s 727 mmHg 80%
    09:00 +28°C° 0 mm 0 m/s 727 mmHg 68%
    10:00 +31°C° 0 mm 0 m/s 727 mmHg 56%
    11:00 +32°C° 0.1 mm 0 m/s 727 mmHg 53%
    12:00 +34°C° 0.1 mm 0 m/s 726 mmHg 49%
    13:00 +35°C° 0.1 mm 0 m/s 725 mmHg 46%
    14:00 +34°C° 0 mm 0 m/s 724 mmHg 47%
    15:00 +35°C° 0 mm 1 m/s 724 mmHg 49%
    16:00 +34°C° 0 mm 1 m/s 724 mmHg 51%
    17:00 +32°C° 0.1 mm 1 m/s 724 mmHg 60%
    18:00 +30°C° 0.1 mm 1 m/s 724 mmHg 69%
    19:00 +28°C° 0.1 mm 1 m/s 725 mmHg 78%
    20:00 +27°C° 0.1 mm 1 m/s 725 mmHg 81%
    21:00 +26°C° 0.1 mm 1 m/s 724 mmHg 84%
    22:00 +26°C° 0.1 mm 1 m/s 724 mmHg 87%
    23:00 +25°C° 0 mm 1 m/s 724 mmHg 88%
    Voir plus